Tracking 27405 objects as of 2-Jun-2023
HD Live streaming from Space Station
objects crossing your sky now

UPPER FREE FLYER

Track UPPER FREE FLYER now!
10-day predictions


NORAD ID: 43763
Int'l Code: 2018-099F
Perigee: 568.9 km
Apogee: 587.1 km
Inclination: 97.6 °
Period: 96.1 minutes
Semi major axis: 6948 km
RCS: Unknown
Launch date: December 3, 2018
Source: United States (US)
Launch site: AIR FORCE WESTERN TEST RANGE (AFWTR)
Your satellite tracking list
Your tracking list is empty




NASA's NSSDC Master Catalog

Two Line Element Set (TLE):
1 43763U 18099F   23152.50320747  .00002721  00000-0  23065-3 0  9992
2 43763  97.5720 215.4332 0013103 169.0014 191.1498 14.98718702245331
Source of the keplerian elements: AFSPC